Weather History for Key West, FL

Change the Weather History Date:

Monday, November 19, 2012

  Actual Average Record
Temperature  
Mean Temperature 72 °F 75 °F  
Max Temperature 75 °F 79 °F 87 °F (1947)
Min Temperature 68 °F 71 °F 57 °F (1951)
Degree Days  
Heating Degree Days 0 0  
Month to date heating degree days 0 0  
Since 1 July heating degree days 0 0  
Cooling Degree Days 7 10  
Month to date cooling degree days 161 220  
Year to date cooling degree days 4497 4428  
Growing Degree Days 22 (Base 50)    
Moisture  
Dew Point 62 °F    
Average Humidity 74    
Maximum Humidity 90    
Minimum Humidity 58    
Precipitation  
Precipitation 0.00 in 0.06 in 1.94 in (1911)
Month to date precipitation 0.10 1.52  
Year to date precipitation 46.30 36.83  
Snow  
Snow 0.00 in - - ()
Month to date snowfall 0.0  
Since 1 July snowfall 0.0  
Since 1 September snowfall 0.0  
Snow Depth 0.00 in    
Sea Level Pressure  
Sea Level Pressure 30.08 in    
Wind  
Wind Speed 11 mph (NNE)    
Max Wind Speed 13 mph    
Max Gust Speed 18 mph    
Visibility 10 miles    
Events      
T = Trace of Precipitation, MM = Missing Value Source: NWS Daily Summary

Daily Weather History Graph

Daily Weather History Graph

Search for Another Location

Airport:

Trip Planner

Search our weather history database for the weather conditions in past years. The results will help you decide how hot, cold, wet, or windy it might be!

Date:

Astronomy

Nov. 19, 2012 Rise Set
Actual Time 6:46 AM EST 5:38 PM EST
Civil Twilight 6:21 AM EST 6:03 PM EST
Nautical Twilight 5:54 AM EST 6:30 PM EST
Astronomical Twilight 5:26 AM EST 6:58 PM EST
Moon 12:01 PM EST (11/19) 11:47 PM EST (11/19)
Length of Visible Light 11h 41m
Length of Day
10h 52m
Waxing Crescent, 40% of the Moon is Illuminated
Nov 19
Waxing Crescent
Nov 20
First Quarter
Nov 28
Full
Dec 6
Last Quarter
Dec 13
New

Hourly Weather History & Observations

Time (EST) Temp. Dew Point Humidity Pressure Visibility Wind Dir Wind Speed Gust Speed Precip Events Conditions
12:53 AM 71.1 °F 64.9 °F 81% 30.08 in 10.0 mi NE 11.5 mph - N/A   Clear
1:53 AM 71.1 °F 66.0 °F 84% 30.08 in 10.0 mi NNE 11.5 mph - N/A   Partly Cloudy
2:53 AM 70.0 °F 66.0 °F 87% 30.08 in 10.0 mi NNE 13.8 mph 18.4 mph N/A   Mostly Cloudy
3:53 AM 70.0 °F 66.0 °F 87% 30.07 in 10.0 mi NNE 12.7 mph 23.0 mph N/A   Mostly Cloudy
4:53 AM 69.1 °F 64.9 °F 87% 30.08 in 10.0 mi NNE 12.7 mph 24.2 mph N/A   Mostly Cloudy
5:27 AM 69.8 °F 64.4 °F 83% 30.08 in 10.0 mi NNE 13.8 mph 20.7 mph N/A   Scattered Clouds
5:53 AM 69.1 °F 64.9 °F 87% 30.09 in 10.0 mi NNE 11.5 mph 20.7 mph N/A   Scattered Clouds
6:53 AM 68.0 °F 64.9 °F 90% 30.10 in 10.0 mi NNE 12.7 mph 19.6 mph N/A   Clear
7:53 AM 70.0 °F 62.1 °F 76% 30.11 in 10.0 mi NNE 15.0 mph 21.9 mph N/A   Clear
8:53 AM 70.0 °F 62.1 °F 76% 30.12 in 10.0 mi NNE 12.7 mph - N/A   Clear
9:53 AM 72.0 °F 60.1 °F 66% 30.14 in 10.0 mi NE 10.4 mph 18.4 mph N/A   Clear
10:53 AM 73.0 °F 61.0 °F 66% 30.13 in 10.0 mi NNE 13.8 mph 21.9 mph N/A   Clear
11:53 AM 73.0 °F 62.1 °F 68% 30.11 in 10.0 mi NNE 13.8 mph - N/A   Clear
12:53 PM 73.0 °F 60.1 °F 64% 30.08 in 10.0 mi NNE 15.0 mph 20.7 mph N/A   Clear
1:53 PM 75.0 °F 59.0 °F 57% 30.05 in 10.0 mi NNE 11.5 mph 18.4 mph N/A   Clear
2:53 PM 73.9 °F 59.0 °F 59% 30.04 in 10.0 mi North 13.8 mph - N/A   Clear
3:53 PM 73.0 °F 59.0 °F 61% 30.04 in 10.0 mi North 11.5 mph - N/A   Clear
4:53 PM 72.0 °F 60.1 °F 66% 30.04 in 10.0 mi North 9.2 mph - N/A   Clear
5:53 PM 70.0 °F 60.1 °F 71% 30.05 in 10.0 mi North 8.1 mph - N/A   Clear
7:53 PM 71.1 °F 57.0 °F 61% 30.07 in 10.0 mi North 6.9 mph - N/A   Clear
8:53 PM 71.1 °F 57.9 °F 63% 30.07 in 10.0 mi North 8.1 mph - N/A   Clear
9:53 PM 69.8 °F 59.0 °F 68% 30.07 in 10.0 mi North 10.4 mph - N/A   Clear
10:53 PM 69.1 °F 61.0 °F 75% 30.06 in 10.0 mi North 5.8 mph - N/A   Clear
11:53 PM 68.0 °F 61.0 °F 78% 30.05 in 10.0 mi NNE 8.1 mph - N/A   Clear